This is the latest recevied weather packets stored in our database for station/object W0AVQ. If no packets are shown the sender has not sent any weather packets the latest 10 day(s).
| Time | Temp. | Humidity | Pressure | Rain* | Wind** | Luminosity | Snow |
|---|---|---|---|---|---|---|---|
| 1777908720 | 24.44° C | 52% | 1012 hPa | 0 mm | - | 108 W/m² | - |
| 1777908417 | 23.89° C | 57% | 1011.8 hPa | 0 mm | - | 104 W/m² | - |
| 1777908114 | 23.89° C | 57% | 1012.1 hPa | 0 mm | - | 105 W/m² | - |
| 1777907810 | 22.78° C | 61% | 1012.1 hPa | 0 mm | - | 101 W/m² | - |
| 1777907505 | 22.78° C | 62% | 1012.1 hPa | 0 mm | - | 92 W/m² | - |
| 1777907202 | 22.78° C | 64% | 1012.1 hPa | 0 mm | - | 93 W/m² | - |
| 1777906898 | 22.78° C | 63% | 1012.3 hPa | 0 mm | - | 90 W/m² | - |
| 1777906596 | 22.22° C | 62% | 1012.3 hPa | 0 mm | - | 94 W/m² | - |
| 1777906291 | 22.78° C | 65% | 1012.4 hPa | 0 mm | - | 78 W/m² | - |
| 1777905988 | 22.22° C | 64% | 1012.2 hPa | 0 mm | - | 82 W/m² | - |
| 1777905685 | 22.78° C | 65% | 1012.5 hPa | 0 mm | - | 78 W/m² | - |
| 1777905382 | 22.22° C | 64% | 1012.2 hPa | 0 mm | - | 78 W/m² | - |
| 1777905080 | 21.67° C | 65% | 1012.4 hPa | 0 mm | - | 75 W/m² | - |
| 1777904777 | 21.67° C | 65% | 1012.4 hPa | 0 mm | - | 72 W/m² | - |
| 1777904474 | 21.67° C | 66% | 1012.5 hPa | 0 mm | - | 72 W/m² | - |
| 1777904170 | 21.11° C | 67% | 1012.5 hPa | 0 mm | - | 70 W/m² | - |
| 1777903868 | 21.11° C | 67% | 1012.7 hPa | 0 mm | - | 70 W/m² | - |
| 1777903564 | 20.56° C | 68% | 1012.7 hPa | 0 mm | - | 70 W/m² | - |
| 1777903260 | 20.56° C | 69% | 1012.6 hPa | 0 mm | - | 70 W/m² | - |
| 1777902956 | 20.56° C | 69% | 1012.6 hPa | 0 mm | - | 71 W/m² | - |
| 1777902653 | 20° C | 69% | 1012.8 hPa | 0 mm | - | 67 W/m² | - |
| 1777902350 | 20° C | 69% | 1012.6 hPa | 0 mm | - | 68 W/m² | - |
| 1777902047 | 20° C | 71% | 1012.7 hPa | 0 mm | - | 69 W/m² | - |
| 1777901746 | 19.44° C | 71% | 1012.9 hPa | 0 mm | - | 67 W/m² | - |
| 1777901443 | 19.44° C | 71% | 1013 hPa | 0 mm | - | 66 W/m² | - |
* Rain latest hour (hover to see other rain measurements)
** Current wind speed in m/s (hover to see current wind gust speed)